MICROMAS-2A (43131 NORAD) Tracking and Keplerian Element Data

This shows tracking and keplerian element data for the satellite.

Feedback or suggestion? Click here.




ElementValue
Catalog43131
NameMICROMAS-2A
Epoch Orbit3296
Epoch Day228.94588938
Epoch Year2018
RAAN291.8116
Inclination97.5295
Eccentricity0.0008306
Argument of Perigee240.3326
Mean Anonmoly119.7084
Mean Motion15.22988321
Decay Rate1.419E-05
L11 43131U 18004W 18228.94588938 .00001419 00000-0 63433-4 0 9998
L22 43131 97.5295 291.8116 0008306 240.3326 119.7084 15.22988321 32967

Live tracking and technical data element details for MICROMAS-2A (NORAD 43131). MICROMAS-2A can be tracked NOW for your location showing map with azimuth and elevation plus other details from your city location.

Track the satellite on the map from your city or location and see movement details for azimuth, elevation, latitude, longitude, range, height, and movement on the map or in text.







IsCatalogInMostPopularTable: catalog: 43131, numindb: 142
Update: records affected: 1



GetName: 43131 MICROMAS-2A

Hit Count: updated at: Fri, 17 Aug 2018 13:20:08 GMT